Location: Little Cypress
(30.1590°N, 93.7750°W)
Time: 11:52:30
(UTC-06:00)

Daily predictions for brighter satellites

Satellite Brightness Start Highest point End
(mag) Time Altitude Azimuth Time Altitude Azimuth Time Altitude Azimuth
CZ-3B DEB 3.1 17:35:08 10° W 17:37:55 28° NNW 17:43:36 10° NNE
NOSS 3-3 (A) 4.2 17:33:02 10° SSW 17:39:07 78° WNW 17:45:36 10° NNE
NOSS 3-3 (C) 4.2 17:33:08 10° SSW 17:39:14 79° WNW 17:45:43 10° NNE
COSMOS 2487 4.4 17:41:18 10° NE 17:42:36 12° ENE 17:43:54 10° E
USA 32 4.3 17:37:24 10° S 17:42:37 78° W 17:47:50 10° N
Hubble Space Telescope 3.4 17:40:51 10° WSW 17:43:48 19° SSW 17:46:46 10° SSE
Cosmos 494 Rocket 4.1 17:45:07 10° N 17:50:15 53° ENE 17:55:22 10° SSE
Cosmos 1812 3.0 17:47:11 10° SSW 17:51:01 71° W 17:54:52 10° N
Cosmos 1238 Rocket 3.0 17:49:02 10° SSW 17:51:56 50° W 17:54:49 10° N
ATLAS 2AS CENTAUR R/B 3.0 17:45:53 10° NNW 17:53:48 64° ENE 18:01:04 10° SE
IDEFIX/ARIANE 42P 2.5 17:49:30 10° SSE 17:54:43 82° ENE 17:59:55 10° N
Okean 1 3.3 17:51:24 10° S 17:55:25 86° E 17:59:29 10° N
Cosmos 1544 Rocket 3.8 17:52:26 10° N 17:56:54 79° W 18:01:21 10° S
CZ-2C R/B 2.5 17:52:57 10° SSE 17:57:52 88° WSW 18:02:58 10° NNW
ASTRO F (AKARI) 4.3 17:55:52 10° N 17:59:00 79° WNW 18:02:10 10° SSW
COSMO-SKYMED 1 2.8 17:55:22 10° NNE 17:59:35 50° E 18:03:47 10° S
SJ-7 4.5 17:56:33 10° SSE 18:00:45 88° ENE 18:05:01 10° N
CORIOLIS 4.2 18:00:33 10° SSE 18:05:58 88° WSW 18:11:23 10° NNW
COSMOS 2441 4.4 18:02:33 10° SSE 18:07:17 57° ENE 18:12:05 10° N
KM-V1 2.6 18:05:53 10° W 18:08:13 78° N 18:09:08 27° ENE
Cosmos 1346 Rocket 2.7 18:04:52 10° S 18:08:47 85° E 18:12:41 10° N
GRACE-2 4.4 18:07:16 10° SSE 18:09:50 35° E 18:12:04 12° NNE
GRACE-1 4.4 18:07:40 10° SSE 18:10:15 36° E 18:12:34 12° NNE
Nadezhda 3 Rocket 4.0 18:05:14 10° S 18:11:19 65° E 18:17:29 10° NNE
Cosmos 1536 Rocket 4.4 18:07:06 10° SSW 18:11:26 53° W 18:15:48 10° N
CZ-4 R/B 4.5 18:08:26 10° SSE 18:12:34 87° WSW 18:16:44 10° NNW
Cosmos 2297 3.7 18:10:22 10° SSW 18:16:00 88° ESE 18:21:40 10° NNE
Cosmos 1025 Rocket 3.7 18:15:23 10° SSE 18:19:16 33° E 18:21:58 17° NE
YAOGAN 1 3.5 18:15:16 10° S 18:19:27 50° W 18:23:40 10° NNW
Tiangong 1 3.1 18:21:03 10° WNW 18:23:12 18° NNW 18:24:26 14° N
Cosmos 921 Rocket 2.8 18:19:02 10° S 18:23:13 80° ESE 18:27:30 10° NNE
Cosmos 2251 Rocket 4.2 18:18:39 10° NNW 18:23:53 58° WSW 18:29:03 10° S
Intercosmos 25 3.2 18:25:25 11° N 18:28:20 43° E 18:31:50 10° SSE
Cosmos 2278 Rocket 3.9 18:24:18 10° SW 18:29:13 30° WNW 18:34:09 10° N
Meteor 2-21 Rocket 4.4 18:28:07 10° N 18:34:16 68° E 18:40:21 10° SSE
NOSS 2-1 (D) 3.7 18:30:49 10° SW 18:34:33 58° WNW 18:37:14 19° NNE
NOSS 2-1 (C) 3.7 18:31:28 10° SW 18:35:16 59° WNW 18:37:53 20° NNE
CZ-4 R/B 4.4 18:33:27 10° SW 18:36:29 19° W 18:39:31 10° NW
Meteor 2-16 Rocket 4.4 18:31:39 10° N 18:37:37 57° E 18:43:34 10° SSE
NOAA 12 4.3 18:33:17 10° SE 18:38:17 45° ENE 18:43:17 10° N
Genesis I 3.1 18:41:06 10° NNW 18:44:58 60° ENE 18:45:50 46° ESE
Meteor 1-19 Rocket 4.4 18:40:56 10° S 18:46:41 79° W 18:52:32 10° N
Okean 1-7 Rocket 4.2 18:44:58 10° SSW 18:49:26 58° W 18:53:52 10° N
METEOR-M 4.2 18:45:10 10° SSE 18:50:18 50° ENE 18:55:27 10° N
Cosmos 1484 Rocket 4.0 18:48:50 10° S 18:52:25 42° W 18:55:58 10° NNW
Delta 2 Rocket 3.9 18:50:12 10° WNW 18:53:53 41° N 18:54:13 40° N
NOSS 2-1 (E) 4.5 18:50:18 10° SW 18:53:54 39° WNW 18:55:53 23° N
Cosmos 1743 2.7 18:53:23 10° N 18:57:15 78° W 19:01:05 10° S
Cosmos 1892 Rocket 3.9 18:55:01 10° S 18:58:22 46° SE 18:58:22 46° SE
Cosmos 1833 Rocket 2.7 18:54:24 10° N 18:59:56 55° ENE 19:02:10 34° SE
Cosmos 2082 Rocket 2.1 18:55:00 10° NNW 19:00:38 68° ENE 19:06:18 10° SSE
Cosmos 2056 Rocket 3.5 18:59:20 10° SSW 19:04:43 88° WNW 19:06:59 36° NNE
OTV 4 3.3 19:07:18 10° WSW 19:09:04 14° SW 19:09:38 14° SSW
GEOS 3 Rocket 3.6 19:11:18 58° NNE 19:11:18 58° NNE 19:15:53 10° NNW
Centaur D AC-25 4.2 19:06:08 10° WSW 19:11:26 66° SSE 19:19:04 34° E
Centaur D AC-25 4.2 19:06:07 10° WSW 19:11:27 66° SSE 19:19:05 34° E
Centaur D AC-25 4.2 19:06:08 10° WSW 19:11:27 66° SSE 19:19:04 34° E
Centaur D AC-25 4.2 19:06:07 10° WSW 19:11:27 66° SSE 19:19:03 34° E
Cosmos 1934 Rocket 3.8 19:05:57 10° N 19:12:11 76° E 19:18:29 10° S
Meteor 1-23 Rocket 4.4 19:08:55 10° SSW 19:14:39 72° W 19:18:40 20° N
Cosmos 1624 Rocket 4.5 19:13:17 10° SSW 19:18:22 57° WNW 19:20:30 33° N
Cosmos 2369 Rocket 3.6 19:29:57 10° S 19:32:27 26° S 19:32:27 26° S
Meteor 2-9 Rocket 4.3 19:31:57 10° NNW 19:37:18 66° W 19:42:33 10° S
Mugunghwa Rocket 4.4 19:39:16 10° W 19:47:12 67° S 19:47:30 66° S
Aurora 2 Rocket 4.4 19:58:46 10° W 20:09:10 62° S 20:09:10 62° S
ATLAS 3B CENTAUR R/B 3.8 20:21:43 10° W 20:31:11 46° WSW 20:31:11 46° WSW
FALCON 9 R/B 4.2 20:32:16 10° WNW 20:40:12 35° WNW 20:40:12 35° WNW
